Location: Newark
(42.7133°N, 87.7910°W)
Time: 10:25:38
(UTC+00:00)

Vanguard 1 Rocket - Pass Details

Date: 19 September 2019
Orbit: 650 x 4226 km, 34.3° (Epoch: 13 October)

Event Time Altitude Azimuth Distance (km) Brightness Sun altitude
Rises 02:57:29 0° 264° (W) 7,114 12.6 -31.8°
Reaches altitude 10° 03:03:09 10° 261° (W) 5,527 11.8 -32.6°
Enters shadow 03:16:22 52° 200° (SSW) 2,008 8.8 -34.5°
